map of CEQ home
CEQ - Airport
Location
City:  Cannes, Provence-Alpes-Côte d'Azur, France
Name:Mandelieu
ICAO:LFMD
IATA:CEQ

Details
Type:Airport (Aerodrome, Airfield)
Use:Public/Civil
Latitude:43°32'47"N (43.546389)
Longitude:6°57'15"E (6.954167)
Elevation:13 ft (4 m)
Variation:2.02°E (WMM2015 magnetic declination)
0.11° annual change
Runways:3
Longest:5282 × 148 ft (1610 × 45 m)

Time
Time Zone:UTC+1 (DST+2)
Local Time:

Weather
METAR:LFMD 161800Z AUTO VRB03KT CAVOK 19/17 Q1008 BECMG SHRA
TAF:LFMD 161400Z 1615/1715 36010KT 9999 SHRA FEW040CB BKN100
TEMPO 1615/1618 TSRA
BECMG 1618/1620 VRB03KT NSC
BECMG 1622/1624 35010KT
BECMG 1707/1709 18010KT

Related Locations
Nearby:
Farthest:CHT: 12269 mi / 19745 km
Waitangi [Tuuta], CIT, NZ

Find:

   beyond  
but within

Other Information
Maps:
NOTAMs:
Links:
Sources:

  
  • flag of France
  • flag of Provence-Alpes-Côte d'Azur
  

Sectional Chart

Flight Planning
at skyvector.com

Satellite Image

Google Maps Satellite view

 

Copyright © 2004-2018 Karl L. Swartz. All rights reserved.
The Great Circle Mapper name and logo are trademarks of the Great Circle Mapper.
All other trademarks mentioned herein belong to their respective owners.
Please see credits for attibutions and further copyright information.

  Follow gcmap on Facebook Follow gcmap on Twitter Follow gcmap on Google+ GCmap on LinkedIn

hCard Microformat

Geo Microformat